This is the latest recevied weather packets stored in our database for station/object EA5GTE-12. If no packets are shown the sender has not sent any weather packets the latest 10 day(s).
| Time | Temp. | Humidity | Pressure | Rain* | Wind** | Luminosity | Snow |
|---|---|---|---|---|---|---|---|
| 1788062912 | 15° C | 100% | 941.4 hPa | - | - | - | - |
| 1788062012 | 15.56° C | 100% | 941.5 hPa | - | - | - | - |
| 1788061112 | 15° C | 100% | 941.5 hPa | - | - | - | - |
| 1788060212 | 15.56° C | 100% | 941.5 hPa | - | - | - | - |
| 1788059312 | 15.56° C | 100% | 941.5 hPa | - | - | - | - |
| 1788058412 | 16.11° C | 100% | 941.5 hPa | - | - | - | - |
| 1788057512 | 16.67° C | 100% | 941.4 hPa | - | - | - | - |
| 1788056612 | 17.78° C | 100% | 941.1 hPa | - | - | - | - |
| 1788055712 | 17.78° C | 100% | 941.2 hPa | - | - | - | - |
| 1788054812 | 17.78° C | 100% | 941.2 hPa | - | - | - | - |
| 1788053912 | 17.78° C | 100% | 941.3 hPa | - | - | - | - |
| 1788053011 | 17.78° C | 100% | 941.4 hPa | - | - | - | - |
| 1788052111 | 17.78° C | 100% | 941.6 hPa | - | - | - | - |
| 1788051211 | 17.78° C | 100% | 941.5 hPa | - | - | - | - |
| 1788050311 | 18.33° C | 100% | 941.7 hPa | - | - | - | - |
| 1788049411 | 18.33° C | 95% | 941.8 hPa | - | - | - | - |
| 1788048511 | 18.89° C | 91% | 941.7 hPa | - | - | - | - |
| 1788047611 | 18.89° C | 86% | 941.8 hPa | - | - | - | - |
| 1788046711 | 18.89° C | 83% | 941.8 hPa | - | - | - | - |
| 1788045810 | 19.44° C | 79% | 941.8 hPa | - | - | - | - |
| 1788044910 | 20° C | 75% | 941.8 hPa | - | - | - | - |
| 1788044010 | 19.44° C | 73% | 941.8 hPa | - | - | - | - |
| 1788043110 | 18.89° C | 73% | 941.9 hPa | - | - | - | - |
| 1788041310 | 18.89° C | 62% | 942 hPa | - | - | - | - |
| 1788040408 | 18.89° C | 51% | 942 hPa | - | - | - | - |
* Rain since midnight (hover to see other rain measurements)
** Current wind speed in m/s (hover to see current wind gust speed)